Back to catalog

NOAA 16 DEB

AliveSSO
NORAD 42362·DEBRIS·🇺🇸 United States

Launched Sep 21, 2000 from Vandenberg Space Force Base

Loading…

Next Passes (next 24 hours)

TLE

FreshSource: Space-Track

Epoch: Sep 14, 2026, 03:12 UTC

1 42362U 00055RE  26257.13338925  .00004365  00000-0  22045-2 0  9996
2 42362  98.8462 218.6278 0091214 288.6088  70.5196 14.14601046540315

Track NOAA 16 DEB in real time with AllMySat

Download on the App Store